Location: Beetenbrück
(52.8113°N, 9.5946°E)
Time: 22:15:09
(UTC+00:00)

SPOT 3 Rocket - Pass Details

Date: 14 April 2026
Orbit: 774 x 791 km, 98.5° (Epoch: 12 May)

Event Time Altitude Azimuth Distance (km) Brightness Sun altitude
Exits shadow 21:05:47 28° 197° (SSW) 1,433 4.6 -21.1°
Maximum altitude 21:08:17 53° 260° (W) 971 4.1 -21.3°
Drops below altitude 10° 21:13:22 10° 337° (NNW) 2,356 7.1 -21.8°
Sets 21:15:45 0° 342° (NNW) 3,287 8.1 -22.0°
